Hourly Data Report for September 05, 2017

All times are specified in Local Standard Time (LST). Add 1 hour to adjust for Daylight Saving Time where and when it is observed.

CAPE DORSET A
NUNAVUT

64°13'49.000" N
76°31'30.000" W
48.20 m
2400637
71366
YTE

Download Data

Hourly Data (September 2017)
Hourly Data Report for September 5, 2017
Temp Definition
°C
Dew Point Temp Definition
°C
Rel Hum Definition
%
Wind Dir Definition
10's deg

Wind Spd Definition
km/h
Visibility Definition
km
Stn Press Definition
kPa
Hmdx Definition


Wind Chill Definition


Weather Definition


TIME
00:00 Legend Double Dagger 5.6 4.6 93 3 17 16.1 100.02     LegendNANA
01:00 Legend Double Dagger 5.5 4.8 95 3 17 16.1 100.01     LegendNANA
02:00 Legend Double Dagger 5.6 4.7 94 5 21 16.1 100.03     LegendNANA
03:00 Legend Double Dagger 5.5 4.9 96 5 28 16.1 100.05     LegendNANA
04:00 Legend Double Dagger 5.0 4.6 98 5 18 6.4 100.07     Fog
05:00 Legend Double Dagger 4.7 4.6 99 5 24 1.2 100.10     Rain,Fog
06:00 Legend Double Dagger 4.4 4.4 100 5 26 1.2 100.10     Rain,Fog
07:00 Legend Double Dagger 4.8 4.2 96 5 28 16.1 100.12     LegendNANA
08:00 Legend Double Dagger 4.8 4.4 97 5 24 16.1 100.13     LegendNANA
09:00 Legend Double Dagger 5.2 4.6 96 6 28 16.1 100.11     LegendNANA
10:00 Legend Double Dagger 5.9 4.4 90 7 22 16.1 100.10     LegendNANA
11:00 Legend Double Dagger 6.4 4.7 89 7 24 16.1 100.10     LegendNANA
12:00 Legend Double Dagger 6.6 4.5 87 7 17 16.1 100.12     LegendNANA
13:00 Legend Double Dagger 7.3 4.3 81 7 18 16.1 100.14     LegendNANA
14:00 Legend Double Dagger 7.3 3.9 79 8 21 16.1 100.13     LegendNANA
15:00 Legend Double Dagger 6.4 3.2 80 9 15 16.1 100.14     LegendNANA
16:00 Legend Double Dagger 7.4 2.2 70 7 17 16.1 100.16     LegendNANA
17:00 Legend Double Dagger 7.4 2.0 69 4 15 16.1 100.16     LegendNANA
18:00 Legend Double Dagger 6.9 1.6 69 5 21 16.1 100.20     LegendNANA
19:00 Legend Double Dagger 5.9 2.1 76 3 9 16.1 100.22     LegendNANA
20:00 Legend Double Dagger 5.2 1.7 78 2 15 16.1 100.24     LegendNANA
21:00 Legend Double Dagger 4.9 1.4 78 5 21 16.1 100.20     LegendNANA
22:00 Legend Double Dagger 4.3 1.6 83 3 15 16.1 100.23     LegendNANA
23:00 Legend Double Dagger 4.1 1.6 84 3 15 16.1 100.25     LegendNANA

Notes on Data Quality.

Legend

  • E = Estimated
  • M = Missing
  • NA = Not Available
  • ‡ = Partner data that is not subject to review by the National Climate Archives
Date modified: